Location: Unspecified
(0.0000°N, 0.0000°E)
Time: 09:08:40
(UTC+00:00)

CZ-3C DEB - Pass Details

Date: 12 March 2026
Orbit: 509 x 34331 km, 19.9° (Epoch: 18 April)

Event Time Altitude Azimuth Distance (km) Brightness Sun altitude
Rises 23:42:21 0° 252° (WSW) 12,834 ? -82.3°
Reaches altitude 10° 23:51:08 10° 249° (WSW) 14,026 ? -84.2°
Maximum altitude 01:44:53 40° 241° (WSW) 29,584 ? -66.0°
Drops below altitude 10° 09:05:24 10° 34° (NE) 3,170 ? 43.8°
Sets 09:07:19 0° 47° (NE) 3,602 ? 44.3°
